sat.trackr.live / text

‹ back to catalog

STARLINK-5592

NORAD 55741 · 2023-028A

PAYLOAD ACTIVE UNKNOWN

§ Identity

Operator
Country
US
Launch date
2023-03-03
Launch site
AFWTR
Launch vehicle
Mass (kg)
RCS (m²)

Purposes: comms

External: N2YO · Heavens-Above · Gunter

§ Orbital elements

Epoch: 2026-05-25T04:08:09.064032Z

Period
96.11 min
Inclination
70.0009°
Eccentricity
0.0002799
Mean motion
14.98333767 rev/d
Perigee alt
570.1 km
Apogee alt
574.0 km
Semi-major
6,950.2 km
B*
2.6552e-5
RAAN
51.7338°
Arg perigee
269.7991°
Mean anomaly
90.2848°
Rev number
17,768

§ Raw data

STARLINK-55921 55741U 23028A   26145.17232713  .00000224  00000+0  26552-4 0  99922 55741  70.0009  51.7338 0002799 269.7991  90.2848 14.98333767177688

JSON: /api/v1/satellites/55741 · /tle

For live sub-satellite position, see the globe view (requires WebGL).

§ Visibility from observer

Set your observer location to see the next 7 days of passes ≥ 10°. The values pass through the URL so the page stays shareable.

No JS? Fill the form by hand. The geolocation button needs JavaScript.